Time,TemperatureF,DewpointF,PressureIn,WindDirection,WindDirectionDegrees,WindSpeedMPH,WindSpeedGustMPH,Humidity,HourlyPrecipIn,Conditions,Clouds,dailyrainin,SoftwareType,DateUTC
2013-06-10 00:07:00,61.2,60.0,29.76,West,274,2.0,6.0,95,0.00,,,0.35,weatherlink.com 1.10,2013-06-10 05:07:00,
2013-06-10 00:22:00,61.2,60.0,29.76,WNW,295,1.0,6.0,95,0.00,,,0.35,weatherlink.com 1.10,2013-06-10 05:22:00,
2013-06-10 00:52:00,61.5,60.0,29.77,WNW,293,4.0,5.0,96,0.00,,,0.35,weatherlink.com 1.10,2013-06-10 05:52:00,
2013-06-10 01:07:00,62.4,61.0,29.76,SW,231,2.0,10.0,96,0.00,,,0.00,weatherlink.com 1.10,2013-06-10 06:07:00,
2013-06-10 01:22:00,62.2,61.0,29.76,WNW,295,2.0,8.0,95,0.00,,,0.00,weatherlink.com 1.10,2013-06-10 06:22:00,
2013-06-10 01:37:00,61.9,61.0,29.75,WSW,252,6.0,6.0,95,0.00,,,0.00,weatherlink.com 1.10,2013-06-10 06:37:00,
2013-06-10 01:52:00,61.8,61.0,29.75,WSW,257,4.0,6.0,96,0.00,,,0.00,weatherlink.com 1.10,2013-06-10 06:52:00,
2013-06-10 02:07:00,61.7,61.0,29.75,WNW,290,2.0,5.0,96,0.00,,,0.00,weatherlink.com 1.10,2013-06-10 07:07:00,
2013-06-10 02:22:00,61.7,61.0,29.75,WNW,292,2.0,4.0,96,0.00,,,0.00,weatherlink.com 1.10,2013-06-10 07:22:00,
2013-06-10 02:37:00,61.8,61.0,29.75,West,274,0.0,2.0,96,0.00,,,0.00,weatherlink.com 1.10,2013-06-10 07:37:00,
2013-06-10 02:52:00,61.9,61.0,29.75,SW,228,0.0,2.0,96,0.00,,,0.00,weatherlink.com 1.10,2013-06-10 07:52:00,
2013-06-10 03:07:00,61.7,61.0,29.75,WNW,284,1.0,3.0,96,0.00,,,0.00,weatherlink.com 1.10,2013-06-10 08:07:00,
2013-06-10 03:22:00,61.6,61.0,29.74,WSW,238,0.0,2.0,96,0.00,,,0.00,weatherlink.com 1.10,2013-06-10 08:22:00,
2013-06-10 03:37:00,61.4,60.0,29.75,West,271,1.0,3.0,96,0.00,,,0.00,weatherlink.com 1.10,2013-06-10 08:37:00,
2013-06-10 03:52:00,61.3,60.0,29.75,WSW,250,0.0,2.0,95,0.00,,,0.00,weatherlink.com 1.10,2013-06-10 08:52:00,
2013-06-10 04:07:00,61.3,60.0,29.75,West,274,0.0,1.0,95,0.00,,,0.00,weatherlink.com 1.10,2013-06-10 09:07:00,
2013-06-10 04:23:00,60.6,60.0,29.75,West,280,1.0,1.0,96,0.00,,,0.00,weatherlink.com 1.10,2013-06-10 09:23:00,
2013-06-10 04:38:00,60.9,60.0,29.75,West,265,0.0,2.0,97,0.00,,,0.00,weatherlink.com 1.10,2013-06-10 09:38:00,
2013-06-10 04:53:00,61.2,60.0,29.74,West,265,0.0,1.0,96,0.00,,,0.00,weatherlink.com 1.10,2013-06-10 09:53:00,
2013-06-10 05:08:00,61.5,60.0,29.75,WSW,240,0.0,1.0,95,0.00,,,0.00,weatherlink.com 1.10,2013-06-10 10:08:00,
2013-06-10 05:23:00,61.6,60.0,29.76,SW,236,0.0,1.0,95,0.00,,,0.00,weatherlink.com 1.10,2013-06-10 10:23:00,
2013-06-10 05:38:00,61.9,61.0,29.76,SW,217,2.0,2.0,95,0.00,,,0.00,weatherlink.com 1.10,2013-06-10 10:38:00,
2013-06-10 05:53:00,62.1,61.0,29.76,West,263,0.0,2.0,95,0.00,,,0.00,weatherlink.com 1.10,2013-06-10 10:53:00,
2013-06-10 06:08:00,61.9,61.0,29.76,West,260,0.0,2.0,96,0.00,,,0.00,weatherlink.com 1.10,2013-06-10 11:08:00,
2013-06-10 06:23:00,62.2,61.0,29.77,West,271,1.0,3.0,95,0.00,,,0.00,weatherlink.com 1.10,2013-06-10 11:23:00,
2013-06-10 06:38:00,62.2,61.0,29.77,WSW,243,1.0,3.0,96,0.00,,,0.00,weatherlink.com 1.10,2013-06-10 11:38:00,
2013-06-10 06:53:00,62.5,61.0,29.77,WSW,257,1.0,2.0,96,0.00,,,0.00,weatherlink.com 1.10,2013-06-10 11:53:00,
2013-06-10 07:08:00,62.7,62.0,29.77,West,267,1.0,2.0,96,0.00,,,0.00,weatherlink.com 1.10,2013-06-10 12:08:00,
2013-06-10 07:23:00,63.2,62.0,29.77,West,266,1.0,3.0,96,0.00,,,0.00,weatherlink.com 1.10,2013-06-10 12:23:00,
2013-06-10 07:38:00,63.6,62.0,29.77,WNW,292,1.0,2.0,94,0.00,,,0.00,weatherlink.com 1.10,2013-06-10 12:38:00,
2013-06-10 07:53:00,64.1,62.0,29.78,West,280,1.0,3.0,94,0.00,,,0.00,weatherlink.com 1.10,2013-06-10 12:53:00,
2013-06-10 08:08:00,64.7,62.0,29.78,West,267,2.0,4.0,92,0.00,,,0.00,weatherlink.com 1.10,2013-06-10 13:08:00,
2013-06-10 08:23:00,65.2,62.0,29.79,WNW,288,3.0,9.0,90,0.00,,,0.00,weatherlink.com 1.10,2013-06-10 13:23:00,
2013-06-10 08:38:00,65.8,62.0,29.79,NW,308,3.0,11.0,87,0.00,,,0.00,weatherlink.com 1.10,2013-06-10 13:38:00,
2013-06-10 08:53:00,66.2,62.0,29.79,WNW,290,4.0,9.0,87,0.00,,,0.00,weatherlink.com 1.10,2013-06-10 13:53:00,
2013-06-10 09:08:00,67.1,64.0,29.80,West,263,3.0,6.0,88,0.00,,,0.00,weatherlink.com 1.10,2013-06-10 14:08:00,
2013-06-10 09:23:00,67.1,62.0,29.80,West,276,2.0,8.0,84,0.00,,,0.00,weatherlink.com 1.10,2013-06-10 14:23:00,
2013-06-10 09:38:00,68.2,63.0,29.80,WNW,300,4.0,8.0,84,0.00,,,0.00,weatherlink.com 1.10,2013-06-10 14:38:00,
2013-06-10 09:53:00,68.7,64.0,29.80,East,101,1.0,7.0,84,0.00,,,0.00,weatherlink.com 1.10,2013-06-10 14:53:00,
2013-06-10 10:08:00,69.4,63.0,29.80,WNW,294,4.0,9.0,81,0.00,,,0.00,weatherlink.com 1.10,2013-06-10 15:08:00,
2013-06-10 10:23:00,68.2,63.0,29.81,NW,308,4.0,5.0,84,0.00,,,0.00,weatherlink.com 1.10,2013-06-10 15:23:00,
2013-06-10 10:38:00,67.5,63.0,29.81,WNW,302,1.0,5.0,86,0.00,,,0.00,weatherlink.com 1.10,2013-06-10 15:38:00,
2013-06-10 10:53:00,68.2,64.0,29.82,WNW,288,2.0,5.0,85,0.00,,,0.00,weatherlink.com 1.10,2013-06-10 15:53:00,
2013-06-10 11:08:00,67.7,63.0,29.82,NW,311,5.0,7.0,84,0.00,,,0.00,weatherlink.com 1.10,2013-06-10 16:08:00,
2013-06-10 11:23:00,67.3,63.0,29.83,NW,320,3.0,7.0,86,0.00,,,0.00,weatherlink.com 1.10,2013-06-10 16:23:00,
2013-06-10 11:38:00,69.0,63.0,29.83,WNW,298,4.0,12.0,81,0.00,,,0.00,weatherlink.com 1.10,2013-06-10 16:38:00,
2013-06-10 11:53:00,70.1,63.0,29.83,WNW,283,6.0,9.0,79,0.00,,,0.00,weatherlink.com 1.10,2013-06-10 16:53:00,
2013-06-10 12:08:00,70.2,64.0,29.84,WNW,288,7.0,9.0,80,0.00,,,0.00,weatherlink.com 1.10,2013-06-10 17:08:00,
2013-06-10 12:23:00,70.2,64.0,29.84,WNW,300,2.0,8.0,80,0.00,,,0.00,weatherlink.com 1.10,2013-06-10 17:23:00,
2013-06-10 12:39:00,70.4,64.0,29.84,West,262,2.0,9.0,79,0.00,,,0.00,weatherlink.com 1.10,2013-06-10 17:39:00,
2013-06-10 12:54:00,69.9,64.0,29.84,WNW,283,8.0,8.0,81,0.00,,,0.00,weatherlink.com 1.10,2013-06-10 17:54:00,
2013-06-10 13:09:00,70.9,64.0,29.84,WNW,288,4.0,9.0,79,0.00,,,0.00,weatherlink.com 1.10,2013-06-10 18:09:00,
2013-06-10 13:24:00,71.8,63.0,29.83,NW,320,1.0,10.0,74,0.00,,,0.00,weatherlink.com 1.10,2013-06-10 18:24:00,
2013-06-10 13:39:00,72.7,64.0,29.83,NNW,330,3.0,11.0,74,0.00,,,0.00,weatherlink.com 1.10,2013-06-10 18:39:00,
2013-06-10 13:54:00,72.7,64.0,29.84,NW,321,7.0,12.0,75,0.00,,,0.00,weatherlink.com 1.10,2013-06-10 18:54:00,
2013-06-10 14:09:00,73.1,64.0,29.83,WNW,297,7.0,11.0,72,0.00,,,0.00,weatherlink.com 1.10,2013-06-10 19:09:00,
2013-06-10 14:24:00,74.1,65.0,29.83,NW,319,3.0,8.0,73,0.00,,,0.00,weatherlink.com 1.10,2013-06-10 19:24:00,
2013-06-10 14:39:00,72.9,64.0,29.84,NW,315,5.0,8.0,74,0.00,,,0.00,weatherlink.com 1.10,2013-06-10 19:39:00,
2013-06-10 14:54:00,72.4,64.0,29.84,WNW,302,4.0,8.0,76,0.00,,,0.00,weatherlink.com 1.10,2013-06-10 19:54:00,
2013-06-10 15:09:00,72.7,64.0,29.84,WNW,288,3.0,9.0,74,0.00,,,0.00,weatherlink.com 1.10,2013-06-10 20:09:00,
2013-06-10 15:24:00,74.1,65.0,29.84,NNE,27,4.0,6.0,72,0.00,,,0.00,weatherlink.com 1.10,2013-06-10 20:24:00,
2013-06-10 15:39:00,75.5,64.0,29.83,WNW,288,2.0,5.0,68,0.00,,,0.00,weatherlink.com 1.10,2013-06-10 20:39:00,
2013-06-10 15:54:00,74.7,65.0,29.84,NW,321,6.0,8.0,71,0.00,,,0.00,weatherlink.com 1.10,2013-06-10 20:54:00,
2013-06-10 16:09:00,75.3,64.0,29.84,NW,309,3.0,8.0,69,0.00,,,0.00,weatherlink.com 1.10,2013-06-10 21:09:00,
2013-06-10 16:24:00,75.1,64.0,29.84,WNW,293,4.0,8.0,68,0.00,,,0.00,weatherlink.com 1.10,2013-06-10 21:24:00,
2013-06-10 16:39:00,75.5,65.0,29.85,NNW,328,1.0,8.0,69,0.00,,,0.00,weatherlink.com 1.10,2013-06-10 21:39:00,
2013-06-10 16:54:00,76.1,64.0,29.85,WNW,298,3.0,7.0,67,0.00,,,0.00,weatherlink.com 1.10,2013-06-10 21:54:00,
2013-06-10 17:09:00,76.3,64.0,29.84,NE,50,7.0,11.0,66,0.00,,,0.00,weatherlink.com 1.10,2013-06-10 22:09:00,
2013-06-10 17:24:00,76.8,65.0,29.84,ENE,71,5.0,7.0,66,0.00,,,0.00,weatherlink.com 1.10,2013-06-10 22:24:00,
2013-06-10 17:39:00,76.9,64.0,29.84,NW,311,6.0,7.0,64,0.00,,,0.00,weatherlink.com 1.10,2013-06-10 22:39:00,
2013-06-10 17:54:00,77.1,65.0,29.84,ENE,78,1.0,5.0,67,0.00,,,0.00,weatherlink.com 1.10,2013-06-10 22:54:00,
2013-06-10 18:09:00,77.6,65.0,29.84,NE,34,1.0,4.0,65,0.00,,,0.00,weatherlink.com 1.10,2013-06-10 23:09:00,
2013-06-10 18:24:00,76.9,63.0,29.84,WNW,285,3.0,6.0,63,0.00,,,0.00,weatherlink.com 1.10,2013-06-10 23:24:00,
2013-06-10 18:39:00,77.2,65.0,29.84,NE,53,0.0,3.0,65,0.00,,,0.00,weatherlink.com 1.10,2013-06-10 23:39:00,
2013-06-10 18:54:00,77.4,65.0,29.85,NE,46,3.0,4.0,66,0.00,,,0.00,weatherlink.com 1.10,2013-06-10 23:54:00,
2013-06-10 19:09:00,77.0,64.0,29.85,NW,312,2.0,3.0,64,0.00,,,0.00,weatherlink.com 1.10,2013-06-11 00:09:00,
2013-06-10 19:24:00,76.3,63.0,29.85,NW,323,3.0,4.0,64,0.00,,,0.00,weatherlink.com 1.10,2013-06-11 00:24:00,
2013-06-10 19:39:00,77.1,64.0,29.86,West,281,0.0,2.0,64,0.00,,,0.00,weatherlink.com 1.10,2013-06-11 00:39:00,
2013-06-10 19:54:00,77.6,63.0,29.85,WNW,285,0.0,1.0,62,0.00,,,0.00,weatherlink.com 1.10,2013-06-11 00:54:00,
2013-06-10 20:09:00,76.2,64.0,29.85,WNW,285,0.0,0.0,65,0.00,,,0.00,weatherlink.com 1.10,2013-06-11 01:09:00,
2013-06-10 20:24:00,74.6,63.0,29.85,WNW,285,0.0,0.0,67,0.00,,,0.00,weatherlink.com 1.10,2013-06-11 01:24:00,
2013-06-10 20:39:00,72.8,62.0,29.85,WNW,285,0.0,0.0,70,0.00,,,0.00,weatherlink.com 1.10,2013-06-11 01:39:00,
2013-06-10 20:54:00,71.5,62.0,29.85,WNW,285,0.0,0.0,73,0.00,,,0.00,weatherlink.com 1.10,2013-06-11 01:54:00,
2013-06-10 21:09:00,70.3,62.0,29.86,WNW,285,0.0,0.0,75,0.00,,,0.00,weatherlink.com 1.10,2013-06-11 02:09:00,
2013-06-10 21:24:00,69.7,62.0,29.86,WNW,285,0.0,0.0,76,0.00,,,0.00,weatherlink.com 1.10,2013-06-11 02:24:00,
2013-06-10 21:39:00,69.7,62.0,29.86,WNW,285,0.0,0.0,76,0.00,,,0.00,weatherlink.com 1.10,2013-06-11 02:39:00,
2013-06-10 21:54:00,69.7,62.0,29.86,NE,51,0.0,1.0,76,0.00,,,0.00,weatherlink.com 1.10,2013-06-11 02:54:00,
2013-06-10 22:09:00,69.0,62.0,29.87,NNE,22,0.0,1.0,78,0.00,,,0.00,weatherlink.com 1.10,2013-06-11 03:09:00,
2013-06-10 22:24:00,68.9,62.0,29.88,SSE,152,0.0,1.0,78,0.00,,,0.00,weatherlink.com 1.10,2013-06-11 03:24:00,
2013-06-10 22:39:00,68.8,62.0,29.88,SSE,150,0.0,1.0,78,0.00,,,0.00,weatherlink.com 1.10,2013-06-11 03:39:00,
2013-06-10 22:54:00,69.1,62.0,29.88,SSE,165,0.0,2.0,77,0.00,,,0.00,weatherlink.com 1.10,2013-06-11 03:54:00,
2013-06-10 23:10:00,68.7,62.0,29.88,SSE,155,0.0,1.0,78,0.00,,,0.00,weatherlink.com 1.10,2013-06-11 04:10:00,
2013-06-10 23:25:00,68.3,62.0,29.88,ESE,117,0.0,1.0,79,0.00,,,0.00,weatherlink.com 1.10,2013-06-11 04:25:00,
2013-06-10 23:40:00,67.8,62.0,29.88,SSW,197,0.0,1.0,81,0.00,,,0.00,weatherlink.com 1.10,2013-06-11 04:40:00,
2013-06-10 23:55:00,67.7,62.0,29.88,SSE,148,0.0,2.0,81,0.00,,,0.00,weatherlink.com 1.10,2013-06-11 04:55:00,